Total_Precipitation_Accumulation
0.54 0.44 0.21 0.29 0.27 0.48 0.53 0.71 0.58 0.54 0.63 0.67 0.47 0.36 0.29 0.42 0.41 0.28 0.28 0.29 0.29 0.31 0.27 0.20 0.14 0.09 0.06 0.03 0.02 0.01 0.01 0.00 0.01 0.00 0.00 0.00 0.00 0.00 0.00 0.00 0.00 0.00 0.00
1.19 1.24 0.68 0.79 0.70 0.70 0.78 0.76 0.80 0.79 0.73 0.57 0.38 0.29 0.28 0.31 0.45 0.51 0.37 0.29 0.24 0.21 0.18 0.12 0.07 0.05 0.03 0.02 0.02 0.02 0.01 0.00 0.00 0.00 0.00 0.00 0.00 0.00 0.00 0.00 0.00 0.00 0.00
1.06 1.04 0.80 0.95 1.09 0.91 0.78 0.54 0.33 0.32 0.35 0.31 0.33 0.29 0.29 0.25 0.20 0.19 0.19 0.20 0.19 0.15 0.09 0.05 0.04 0.03 0.02 0.01 0.01 0.01 0.00 0.00 0.00 0.00 0.00 0.00 0.00 0.00 0.00 0.00 0.00 0.00 0.00
0.45 0.50 0.43 0.43 0.60 0.29 0.31 0.25 0.19 0.13 0.14 0.18 0.14 0.14 0.13 0.15 0.16 0.16 0.18 0.14 0.08 0.03 0.01 0.01 0.02 0.01 0.00 0.00 0.01 0.01 0.01 0.01 0.01 0.01 0.01 0.00 0.00 0.00 0.00 0.00 0.00 0.00 0.01
0.33 0.35 0.27 0.22 0.24 0.16 0.19 0.18 0.12 0.10 0.12 0.15 0.13 0.12 0.15 0.16 0.18 0.16 0.09 0.05 0.03 0.02 0.01 0.01 0.01 0.02 0.01 0.00 0.00 0.01 0.01 0.02 0.02 0.01 0.00 0.00 0.00 0.00 0.00 0.01 0.01 0.00 0.00
0.09 0.13 0.09 0.10 0.15 0.14 0.16 0.14 0.13 0.14 0.20 0.20 0.25 0.27 0.22 0.21 0.27 0.17 0.09 0.04 0.02 0.02 0.01 0.00 0.01 0.01 0.01 0.01 0.01 0.01 0.01 0.01 0.01 0.01 0.01 0.01 0.00 0.00 0.01 0.02 0.02 0.02 0.02
0.07 0.09 0.04 0.04 0.12 0.12 0.11 0.13 0.14 0.15 0.21 0.28 0.32 0.30 0.21 0.14 0.17 0.09 0.06 0.02 0.02 0.02 0.01 0.00 0.00 0.00 0.01 0.00 0.00 0.00 0.00 0.00 0.00 0.00 0.00 0.00 0.01 0.01 0.03 0.03 0.04 0.04 0.02
0.03 0.04 0.06 0.05 0.10 0.12 0.12 0.11 0.15 0.20 0.29 0.31 0.23 0.12 0.09 0.08 0.10 0.06 0.04 0.01 0.02 0.01 0.01 0.00 0.00 0.00 0.00 0.00 0.00 0.00 0.00 0.00 0.00 0.00 0.00 0.00 0.01 0.01 0.02 0.04 0.04 0.03 0.02
0.02 0.03 0.04 0.04 0.07 0.07 0.08 0.12 0.17 0.17 0.09 0.05 0.05 0.05 0.05 0.05 0.05 0.02 0.01 0.00 0.00 0.00 0.00 0.00 0.00 0.00 0.00 0.00 0.00 0.00 0.00 0.00 0.00 0.00 0.02 0.02 0.02 0.01 0.01 0.03 0.02 0.04 0.03
0.03 0.04 0.02 0.03 0.05 0.05 0.07 0.08 0.05 0.03 0.03 0.03 0.03 0.02 0.04 0.02 0.03 0.01 0.00 0.00 0.00 0.00 0.00 0.00 0.00 0.00 0.00 0.00 0.00 0.00 0.01 0.00 0.01 0.02 0.02 0.02 0.01 0.01 0.01 0.01 0.01 0.06 0.06
0.01 0.02 0.02 0.02 0.02 0.01 0.02 0.03 0.02 0.02 0.03 0.03 0.02 0.02 0.02 0.01 0.01 0.00 0.00 0.00 0.00 0.00 0.00 0.00 0.00 0.00 0.00 0.00 0.01 0.02 0.02 0.01 0.03 0.04 0.04 0.05 0.05 0.06 0.05 0.05 0.06 0.12 0.20
0.04 0.03 0.02 0.01 0.01 0.01 0.01 0.01 0.02 0.02 0.02 0.02 0.02 0.02 0.01 0.00 0.00 0.00 0.00 0.00 0.00 0.00 0.00 0.00 0.01 0.00 0.00 0.00 0.01 0.02 0.02 0.03 0.08 0.08 0.07 0.06 0.06 0.09 0.09 0.07 0.05 0.04 0.06
0.02 0.01 0.01 0.01 0.02 0.03 0.04 0.05 0.04 0.04 0.03 0.03 0.01 0.00 0.00 0.00 0.00 0.00 0.00 0.00 0.00 0.00 0.00 0.00 0.00 0.00 0.01 0.02 0.01 0.01 0.04 0.11 0.13 0.14 0.10 0.05 0.02 0.02 0.03 0.04 0.04 0.02 0.01
0.01 0.00 0.00 0.01 0.02 0.02 0.02 0.02 0.02 0.02 0.01 0.00 0.00 0.00 0.00 0.00 0.00 0.00 0.00 0.00 0.00 0.01 0.01 0.02 0.01 0.01 0.01 0.02 0.03 0.04 0.09 0.08 0.09 0.09 0.07 0.06 0.06 0.08 0.07 0.05 0.06 0.06 0.09
0.00 0.00 0.00 0.00 0.01 0.00 0.00 0.01 0.00 0.00 0.00 0.00 0.00 0.00 0.00 0.00 0.00 0.00 0.00 0.01 0.02 0.03 0.04 0.05 0.04 0.04 0.03 0.03 0.04 0.05 0.08 0.11 0.12 0.09 0.10 0.11 0.13 0.13 0.11 0.09 0.12 0.12 0.14
0.00 0.00 0.00 0.00 0.00 0.00 0.00 0.00 0.00 0.00 0.00 0.00 0.00 0.00 0.01 0.01 0.01 0.01 0.01 0.01 0.01 0.02 0.09 0.09 0.07 0.07 0.07 0.05 0.06 0.07 0.08 0.10 0.10 0.10 0.12 0.12 0.14 0.16 0.17 0.18 0.23 0.23 0.20
0.00 0.00 0.00 0.00 0.01 0.00 0.00 0.00 0.02 0.05 0.07 0.07 0.08 0.06 0.05 0.04 0.02 0.00 0.00 0.00 0.00 0.01 0.07 0.10 0.08 0.07 0.06 0.05 0.07 0.09 0.09 0.09 0.10 0.13 0.12 0.10 0.09 0.10 0.11 0.12 0.10 0.08 0.07
0.05 0.08 0.09 0.10 0.10 0.10 0.11 0.13 0.14 0.14 0.15 0.15 0.11 0.06 0.05 0.05 0.03 0.02 0.01 0.01 0.01 0.01 0.03 0.05 0.06 0.07 0.06 0.06 0.06 0.06 0.07 0.09 0.11 0.09 0.08 0.08 0.11 0.13 0.15 0.12 0.11 0.12 0.11
0.11 0.17 0.20 0.23 0.25 0.24 0.24 0.23 0.21 0.19 0.17 0.17 0.16 0.14 0.11 0.09 0.06 0.05 0.04 0.05 0.05 0.04 0.04 0.07 0.07 0.09 0.12 0.14 0.14 0.16 0.20 0.23 0.25 0.26 0.24 0.25 0.26 0.29 0.28 0.26 0.25 0.20 0.20
0.39 0.39 0.36 0.34 0.32 0.28 0.24 0.20 0.16 0.14 0.12 0.10 0.09 0.08 0.07 0.05 0.05 0.05 0.04 0.04 0.05 0.06 0.07 0.10 0.11 0.12 0.15 0.16 0.17 0.18 0.20 0.20 0.21 0.22 0.19 0.16 0.14 0.15 0.15 0.14 0.15 0.16 0.13
0.46 0.40 0.32 0.27 0.23 0.19 0.16 0.12 0.10 0.09 0.08 0.07 0.07 0.06 0.04 0.03 0.03 0.03 0.03 0.04 0.06 0.06 0.08 0.10 0.11 0.12 0.12 0.12 0.12 0.12 0.13 0.14 0.16 0.19 0.19 0.20 0.20 0.18 0.16 0.16 0.14 0.12 0.11
0.26 0.21 0.18 0.15 0.13 0.11 0.09 0.07 0.06 0.05 0.04 0.04 0.04 0.03 0.03 0.03 0.04 0.04 0.04 0.04 0.05 0.06 0.07 0.07 0.08 0.09 0.09 0.10 0.10 0.11 0.12 0.14 0.13 0.13 0.12 0.12 0.13 0.14 0.13 0.14 0.14 0.13 0.11
0.12 0.11 0.10 0.09 0.08 0.06 0.04 0.04 0.03 0.03 0.04 0.04 0.04 0.04 0.04 0.04 0.03 0.03 0.02 0.02 0.02 0.03 0.05 0.07 0.08 0.08 0.08 0.09 0.10 0.14 0.16 0.13 0.13 0.17 0.19 0.15 0.12 0.12 0.12 0.13 0.14 0.15 0.15
0.08 0.06 0.05 0.05 0.04 0.04 0.04 0.04 0.04 0.03 0.04 0.04 0.03 0.03 0.02 0.01 0.01 0.01 0.01 0.01 0.01 0.01 0.03 0.04 0.05 0.06 0.06 0.07 0.07 0.08 0.10 0.13 0.16 0.18 0.22 0.20 0.16 0.14 0.16 0.15 0.14 0.15 0.14
0.04 0.03 0.03 0.02 0.02 0.02 0.02 0.02 0.02 0.01 0.01 0.01 0.01 0.01 0.01 0.01 0.00 0.00 0.01 0.01 0.00 0.01 0.01 0.02 0.04 0.05 0.04 0.05 0.05 0.05 0.06 0.09 0.12 0.15 0.19 0.19 0.17 0.17 0.19 0.20 0.17 0.18 0.15
0.01 0.01 0.00 0.01 0.00 0.01 0.01 0.01 0.01 0.00 0.01 0.01 0.01 0.01 0.01 0.01 0.00 0.00 0.01 0.00 0.01 0.00 0.00 0.01 0.02 0.02 0.02 0.03 0.03 0.04 0.04 0.05 0.06 0.09 0.17 0.17 0.18 0.18 0.20 0.19 0.20 0.25 0.17